Precipitable_Water
0.28 0.21 0.19 0.23 0.24 0.24 0.22 0.24 0.26 0.24 0.35 0.33 0.30 0.36 0.34 0.45 0.55 0.49 0.54 0.65 0.83 1.00 1.33 1.33 2.13 1.96 1.50 1.71 1.61 1.75 1.78 1.72 1.69 1.60 1.55 1.50 1.50 1.55 1.54 1.51 1.48 1.50 1.43 1.36
0.29 0.21 0.25 0.29 0.28 0.26 0.24 0.24 0.27 0.28 0.33 0.33 0.34 0.33 0.37 0.42 0.41 0.43 0.45 0.74 0.96 1.12 1.08 1.12 1.35 1.89 1.99 1.77 1.68 1.97 2.00 1.94 1.83 1.77 1.69 1.66 1.61 1.59 1.56 1.54 1.45 1.39 1.32 1.25
0.23 0.27 0.33 0.28 0.29 0.26 0.27 0.24 0.25 0.24 0.30 0.35 0.33 0.29 0.29 0.31 0.37 0.41 0.47 0.61 0.80 0.97 1.01 1.14 1.28 1.59 1.59 1.56 1.55 1.53 1.63 1.69 1.67 1.68 1.70 1.67 1.64 1.57 1.48 1.40 1.34 1.29 1.26 1.16
0.26 0.30 0.34 0.30 0.25 0.29 0.23 0.23 0.21 0.21 0.21 0.22 0.31 0.25 0.32 0.30 0.38 0.42 0.58 0.72 0.75 0.84 1.08 1.07 1.21 1.27 1.29 1.36 1.51 1.55 1.49 1.42 1.46 1.51 1.42 1.34 1.30 1.22 1.29 1.26 1.22 1.18 1.11 1.10
0.23 0.27 0.30 0.30 0.28 0.30 0.24 0.27 0.28 0.25 0.21 0.24 0.24 0.25 0.31 0.36 0.39 0.54 0.76 0.80 0.70 0.81 0.91 0.97 0.96 0.97 1.01 1.09 1.08 1.11 1.12 1.16 1.20 1.20 1.23 1.21 1.19 1.11 1.08 1.07 1.03 1.02 1.04 0.98
0.26 0.32 0.34 0.31 0.33 0.30 0.28 0.28 0.30 0.31 0.26 0.19 0.24 0.25 0.27 0.40 0.46 0.68 0.82 0.79 0.70 0.70 0.70 0.74 0.80 0.86 0.88 0.96 0.98 1.01 1.02 1.05 1.09 1.09 1.09 1.04 0.99 0.98 0.96 0.96 0.92 0.89 0.84 0.87
0.27 0.24 0.31 0.31 0.28 0.29 0.26 0.26 0.22 0.20 0.19 0.17 0.25 0.26 0.26 0.45 0.61 0.73 0.75 0.75 0.68 0.68 0.64 0.68 0.72 0.77 0.84 0.88 0.92 0.96 0.96 0.93 0.97 0.92 0.93 0.96 0.93 0.91 0.87 0.85 0.80 0.71 0.75 0.77
0.22 0.21 0.24 0.31 0.26 0.24 0.25 0.27 0.22 0.20 0.23 0.31 0.35 0.27 0.36 0.54 0.70 0.82 0.79 0.67 0.68 0.67 0.68 0.72 0.76 0.81 0.83 0.83 0.85 0.88 0.87 0.86 0.87 0.88 0.86 0.84 0.85 0.82 0.79 0.80 0.83 0.86 0.85 0.82
0.20 0.23 0.34 0.32 0.32 0.28 0.30 0.29 0.29 0.30 0.35 0.34 0.41 0.45 0.58 0.68 0.68 0.72 0.68 0.64 0.61 0.67 0.71 0.75 0.81 0.80 0.83 0.84 0.81 0.82 0.83 0.83 0.84 0.85 0.86 0.84 0.78 0.76 0.78 0.84 0.88 0.86 0.82 0.74
0.27 0.26 0.36 0.35 0.32 0.32 0.31 0.41 0.33 0.29 0.25 0.28 0.35 0.42 0.43 0.58 0.63 0.67 0.71 0.66 0.65 0.70 0.74 0.78 0.80 0.82 0.86 0.85 0.80 0.82 0.83 0.83 0.84 0.81 0.78 0.76 0.80 0.80 0.81 0.81 0.80 0.79 0.69 0.58
0.29 0.32 0.31 0.36 0.29 0.28 0.28 0.27 0.35 0.39 0.36 0.27 0.27 0.39 0.61 0.62 0.68 0.70 0.78 0.84 0.76 0.72 0.74 0.79 0.81 0.85 0.87 0.87 0.79 0.80 0.81 0.81 0.82 0.78 0.76 0.77 0.76 0.78 0.77 0.72 0.66 0.59 0.53 0.47
0.33 0.32 0.30 0.34 0.37 0.34 0.32 0.30 0.29 0.30 0.32 0.38 0.43 0.47 0.59 0.63 0.68 0.74 0.75 0.86 0.88 0.77 0.79 0.82 0.83 0.86 0.85 0.85 0.81 0.77 0.79 0.79 0.79 0.75 0.76 0.77 0.74 0.70 0.65 0.62 0.56 0.54 0.50 0.51
0.38 0.33 0.29 0.33 0.42 0.38 0.31 0.29 0.35 0.35 0.40 0.39 0.36 0.37 0.58 0.63 0.67 0.75 0.77 0.88 0.91 0.83 0.82 0.83 0.85 0.83 0.86 0.84 0.81 0.80 0.79 0.78 0.75 0.73 0.73 0.72 0.75 0.75 0.69 0.62 0.53 0.53 0.51 0.50
0.44 0.39 0.33 0.30 0.36 0.39 0.32 0.30 0.33 0.40 0.35 0.35 0.36 0.42 0.56 0.60 0.63 0.74 0.78 0.93 0.95 0.89 0.85 0.84 0.85 0.87 0.87 0.84 0.84 0.81 0.79 0.77 0.77 0.69 0.70 0.74 0.73 0.69 0.65 0.61 0.53 0.47 0.50 0.51
0.42 0.37 0.38 0.36 0.42 0.48 0.45 0.44 0.40 0.36 0.41 0.40 0.43 0.50 0.58 0.68 0.71 0.77 1.06 0.96 0.93 0.90 0.89 0.86 0.86 0.89 0.85 0.84 0.83 0.79 0.80 0.78 0.75 0.69 0.67 0.67 0.67 0.60 0.58 0.57 0.57 0.53 0.52 0.51
0.43 0.36 0.41 0.40 0.41 0.44 0.46 0.50 0.53 0.45 0.39 0.41 0.45 0.46 0.63 0.73 0.78 0.78 0.88 0.96 0.96 0.92 0.94 0.93 0.88 0.89 0.83 0.84 0.80 0.78 0.80 0.76 0.67 0.66 0.64 0.65 0.62 0.56 0.54 0.57 0.57 0.53 0.52 0.50
0.46 0.37 0.38 0.33 0.43 0.43 0.36 0.40 0.43 0.52 0.50 0.45 0.42 0.64 0.72 0.80 0.79 0.73 0.73 0.74 0.89 0.92 0.91 0.88 0.82 0.85 0.84 0.82 0.79 0.78 0.75 0.68 0.68 0.64 0.64 0.59 0.57 0.54 0.54 0.55 0.54 0.53 0.52 0.51
0.50 0.45 0.42 0.38 0.42 0.32 0.39 0.48 0.45 0.43 0.48 0.55 0.61 0.67 0.66 0.81 0.84 0.83 0.80 0.65 0.83 0.87 0.85 0.80 0.82 0.83 0.82 0.79 0.79 0.78 0.69 0.66 0.61 0.62 0.61 0.59 0.55 0.54 0.56 0.52 0.52 0.48 0.49 0.51
0.65 0.52 0.40 0.37 0.36 0.40 0.45 0.51 0.50 0.43 0.40 0.56 0.61 0.65 0.69 0.87 0.83 0.77 0.78 0.77 0.78 0.79 0.78 0.81 0.84 0.81 0.76 0.78 0.78 0.72 0.61 0.63 0.64 0.62 0.58 0.57 0.57 0.53 0.48 0.45 0.44 0.44 0.50 0.53
0.72 0.68 0.51 0.42 0.39 0.36 0.49 0.61 0.68 0.63 0.47 0.62 0.68 0.69 0.69 0.75 0.58 0.70 0.81 0.84 0.82 0.83 0.84 0.82 0.79 0.78 0.77 0.77 0.72 0.66 0.66 0.58 0.60 0.62 0.58 0.54 0.51 0.51 0.51 0.49 0.45 0.46 0.48 0.49
0.70 0.65 0.66 0.45 0.44 0.55 0.71 0.75 0.71 0.49 0.57 0.65 0.69 0.69 0.67 0.68 0.74 0.82 0.84 0.80 0.83 0.81 0.79 0.78 0.78 0.74 0.75 0.72 0.67 0.58 0.58 0.64 0.62 0.52 0.51 0.52 0.53 0.50 0.47 0.45 0.42 0.45 0.45 0.47
0.49 0.57 0.58 0.52 0.49 0.48 0.73 0.70 0.60 0.79 0.75 0.70 0.80 0.81 0.76 0.77 0.79 0.76 0.72 0.71 0.72 0.71 0.72 0.74 0.71 0.71 0.69 0.64 0.64 0.63 0.61 0.58 0.51 0.46 0.48 0.49 0.47 0.46 0.49 0.44 0.46 0.44 0.47 0.50
0.50 0.52 0.53 0.55 0.50 0.72 0.82 0.77 0.85 0.84 0.78 0.76 0.83 0.90 0.81 0.73 0.66 0.63 0.65 0.69 0.70 0.68 0.69 0.70 0.68 0.67 0.66 0.64 0.64 0.62 0.51 0.48 0.48 0.52 0.53 0.52 0.51 0.49 0.50 0.47 0.45 0.46 0.42 0.45
0.59 0.62 0.59 0.69 0.69 0.72 0.81 0.87 0.83 0.89 0.83 0.82 0.89 0.88 0.77 0.61 0.61 0.64 0.67 0.68 0.67 0.69 0.68 0.70 0.68 0.65 0.61 0.58 0.55 0.51 0.49 0.52 0.53 0.51 0.47 0.46 0.45 0.39 0.42 0.43 0.46 0.44 0.42 0.44
0.64 0.65 0.54 0.64 0.67 0.79 0.79 0.81 0.84 0.84 0.86 0.89 0.89 0.80 0.72 0.65 0.64 0.67 0.68 0.67 0.68 0.70 0.71 0.71 0.66 0.60 0.55 0.57 0.53 0.52 0.52 0.52 0.51 0.50 0.49 0.48 0.43 0.40 0.42 0.44 0.44 0.44 0.51 0.52
0.79 0.79 0.62 0.62 0.74 0.71 0.75 0.84 0.81 0.83 0.83 0.87 0.73 0.65 0.71 0.69 0.66 0.70 0.68 0.70 0.70 0.68 0.67 0.63 0.59 0.61 0.58 0.58 0.54 0.52 0.54 0.52 0.51 0.50 0.52 0.50 0.41 0.43 0.42 0.42 0.48 0.54 0.56 0.57
Wind_Speed
17 16 17 17 16 18 17 14 13 14 13 12 15 14 14 13 14 15 16 16 13 9 15 16 11 13 8 8 11 11 14 15 17 19 21 23 26 28 30 32 33 35 36 36
18 19 18 17 17 17 18 13 14 12 12 12 12 14 16 16 16 14 12 7 10 9 13 17 19 12 2 8 12 13 13 15 18 21 24 27 29 30 32 32 34 35 35 35
21 20 18 19 18 16 14 15 16 16 13 12 12 17 19 20 19 14 13 11 12 13 14 13 12 16 14 13 15 17 19 20 22 24 27 28 30 32 32 33 32 33 33 33
22 21 18 18 19 15 17 17 17 18 17 17 17 16 17 20 19 18 14 11 12 10 11 12 13 16 17 17 17 17 20 21 22 24 26 27 27 28 29 29 30 31 32 33
22 23 22 18 18 17 19 16 16 19 19 18 21 16 16 17 19 16 12 10 9 8 9 12 14 14 14 13 15 17 18 20 21 22 24 24 25 25 25 27 30 31 32 33
23 22 22 22 19 19 17 17 17 13 16 19 20 20 18 15 17 14 10 9 10 10 11 11 11 11 12 14 15 17 19 20 21 21 22 22 21 23 25 28 30 31 32 33
25 25 22 19 19 20 18 16 14 16 16 18 19 20 17 8 14 15 13 12 11 11 10 10 10 11 13 15 16 17 18 18 18 18 18 19 21 23 26 28 30 33 33 32
25 24 26 19 22 20 21 19 16 15 13 10 17 18 18 13 10 12 12 12 12 11 10 9 10 11 13 15 17 17 16 15 15 16 18 20 23 25 27 29 31 33 32 31
24 26 21 27 21 23 21 21 21 20 20 16 9 7 10 11 13 12 11 11 11 9 9 9 9 11 13 15 15 14 13 14 15 17 19 22 24 26 28 30 32 32 28 29
26 23 22 23 25 24 25 20 17 18 17 18 15 17 18 17 16 14 13 11 10 9 10 10 10 12 14 14 14 13 13 14 16 19 21 23 25 27 29 30 30 27 27 25
29 25 22 22 23 23 21 24 21 18 17 16 16 9 5 14 17 16 15 14 11 11 10 11 11 12 14 14 13 13 14 16 18 20 23 25 26 27 28 27 27 26 24 23
28 23 22 25 25 24 25 24 25 20 19 17 15 10 10 16 17 18 18 17 14 11 11 11 12 13 14 13 14 14 15 17 19 22 24 25 26 27 28 27 27 25 24 23
27 27 22 24 22 22 23 26 23 21 20 19 18 19 12 11 13 17 17 17 14 11 11 12 13 14 14 14 14 15 17 18 21 23 24 26 26 27 27 26 26 24 23 23
26 26 29 23 23 20 24 23 24 22 21 21 23 21 16 17 13 12 19 17 13 11 12 13 14 14 14 15 16 16 17 19 22 24 25 26 27 27 26 26 25 23 22 23
24 28 28 29 27 22 22 23 24 26 23 21 18 16 12 13 13 10 13 8 12 13 14 14 14 14 15 16 16 17 18 21 23 25 26 27 26 26 26 25 23 22 22 22
29 28 29 29 27 28 25 23 25 24 24 25 22 22 18 15 15 16 18 13 15 16 14 15 16 16 15 15 16 17 20 22 24 25 26 25 26 25 25 23 23 22 22 23
29 29 29 32 29 27 30 28 22 21 23 21 21 12 8 16 16 15 13 13 15 16 15 15 16 15 15 15 17 19 21 23 24 25 25 25 24 24 23 23 23 22 22 23
29 29 28 26 26 31 27 26 27 25 20 19 13 13 16 13 10 9 13 16 14 14 15 15 14 14 14 16 18 19 21 23 24 24 24 23 24 24 23 23 22 23 23 23
32 30 29 27 28 26 27 21 19 25 26 20 13 16 10 15 12 13 15 13 12 12 12 12 12 13 15 16 18 20 21 22 23 23 23 24 24 23 23 22 22 23 23 23
28 27 31 29 29 29 21 20 17 16 23 20 19 19 19 16 17 14 12 9 8 8 9 10 11 13 15 16 18 19 21 21 21 22 23 23 23 22 22 22 22 22 22 23
26 25 31 31 25 19 20 17 16 20 13 11 19 17 17 14 11 10 9 8 8 9 9 10 12 13 15 16 18 18 19 20 21 22 22 23 22 23 22 21 21 21 21 23
28 20 27 28 24 23 23 20 24 17 14 13 12 12 11 10 11 10 10 9 9 9 9 11 12 13 15 16 17 17 18 18 19 20 21 21 22 21 19 20 19 20 21 22
29 29 23 17 26 25 22 21 14 17 18 16 15 14 13 13 12 11 10 9 9 9 10 11 12 14 14 15 15 15 15 17 18 19 19 20 20 20 18 19 19 19 21 21
33 29 24 19 19 21 21 16 18 13 15 15 15 13 12 12 12 10 10 9 9 9 10 12 13 13 13 13 13 14 15 16 17 18 19 19 19 18 18 18 19 20 22 23
18 26 32 23 25 21 21 22 24 23 14 11 12 12 12 12 11 10 9 9 8 10 11 12 13 12 12 12 12 14 15 16 17 18 19 18 19 18 18 18 20 21 21 22
19 17 24 22 23 20 18 20 25 22 18 16 12 12 12 13 12 10 9 9 9 10 10 11 11 11 10 11 13 14 15 17 17 18 19 19 18 18 19 20 21 21 21 21
Wind_Direction
218 222 224 228 228 237 251 273 254 240 218 222 237 239 245 246 239 258 256 260 289 283 256 277 269 188 170 252 273 265 271 274 282 285 285 290 291 291 293 296 298 300 300 300
225 227 231 233 238 241 247 256 256 255 227 231 240 253 251 247 255 240 247 277 294 285 278 267 274 247 293 291 284 282 288 290 292 292 294 295 294 294 295 297 300 301 302 302
227 227 229 236 240 238 246 246 246 253 254 227 240 262 260 251 243 239 251 274 296 276 274 275 270 279 295 291 288 292 293 296 298 296 296 297 298 298 298 300 302 304 305 305
232 234 245 227 237 236 240 243 247 252 251 253 233 259 253 244 234 235 245 265 294 298 264 271 284 292 295 294 292 295 299 301 300 299 297 296 299 300 300 301 304 305 305 305
232 231 236 230 240 236 245 248 259 242 251 258 255 264 259 267 213 227 232 265 276 281 283 290 294 298 301 302 304 304 306 305 303 304 303 302 302 305 304 305 306 306 306 306
239 238 234 242 237 240 243 244 250 254 250 250 250 256 260 227 222 211 226 247 265 283 290 286 290 296 301 303 306 305 305 304 305 306 306 306 308 308 309 310 308 310 309 310
236 238 240 232 239 234 233 234 244 241 242 251 247 242 248 208 200 213 228 248 264 274 279 279 284 292 299 302 304 304 305 306 308 311 313 313 313 312 311 313 313 312 311 310
233 233 232 224 234 235 225 230 237 237 236 262 252 239 231 203 201 219 234 250 257 259 264 271 282 292 300 303 305 304 304 307 310 313 316 316 316 315 316 316 316 315 313 312
236 237 236 233 229 231 219 230 240 253 265 272 242 200 199 208 217 218 235 241 240 249 257 269 281 295 303 306 306 305 306 308 310 312 315 317 319 319 319 319 319 318 316 316
237 249 242 232 223 230 236 229 232 238 252 261 250 220 246 220 220 227 227 230 232 249 256 268 280 293 302 307 306 303 304 307 311 314 316 318 319 321 321 322 323 323 321 320
229 238 244 226 221 224 226 234 241 241 241 243 255 233 243 211 236 230 229 226 241 251 256 266 281 292 299 302 303 299 303 308 311 314 317 319 319 322 324 324 326 327 325 324
223 231 236 240 230 228 233 229 233 240 241 247 254 237 249 238 236 233 235 234 239 247 259 269 281 289 295 299 300 300 304 308 313 315 319 320 321 322 323 322 324 323 324 325
219 226 231 239 241 227 231 236 232 239 246 250 251 253 243 247 237 233 237 222 234 246 260 271 282 286 289 297 298 299 303 309 313 317 318 320 320 321 322 322 322 322 323 325
225 225 227 234 236 230 226 232 236 235 235 241 246 259 244 242 243 249 247 210 225 251 267 275 283 284 289 293 296 298 304 309 314 316 318 319 321 321 321 320 321 321 321 324
222 228 227 231 239 243 229 232 234 237 239 244 248 246 231 245 248 262 261 216 244 263 269 275 279 285 289 291 293 298 305 309 313 315 317 319 320 321 321 320 319 320 322 324
226 230 228 233 233 237 244 236 231 235 237 237 241 251 242 234 233 233 245 250 255 270 261 273 279 284 287 288 293 299 305 309 313 314 316 317 319 320 320 321 319 318 320 322
221 221 223 233 234 241 242 238 239 234 236 237 237 205 233 228 224 238 252 279 257 265 265 275 280 282 284 289 295 301 305 310 312 314 316 318 319 320 320 320 321 319 319 321
218 219 221 229 228 234 239 238 236 242 242 232 198 217 223 225 241 257 273 280 264 265 270 275 278 279 286 293 298 302 307 310 312 314 316 318 319 320 320 319 319 320 322 322
221 222 222 226 230 237 232 235 250 236 237 219 220 221 234 221 236 266 278 278 270 267 270 274 276 282 290 295 299 304 307 310 313 315 317 317 318 318 320 319 320 321 322 323
226 228 221 220 231 233 232 240 247 237 224 221 222 223 212 234 254 258 265 265 265 266 271 277 282 288 293 297 301 305 308 312 314 317 317 317 317 317 318 318 321 321 323 325
217 223 224 218 225 233 224 237 234 229 221 236 214 224 236 245 246 241 249 251 259 267 274 280 287 293 297 300 303 307 309 314 316 318 319 318 318 317 316 317 319 322 322 325
220 225 225 225 224 232 230 231 224 214 212 208 200 213 215 223 230 238 243 250 258 265 274 283 291 298 300 302 304 309 313 316 319 322 323 324 323 323 320 320 321 322 324 327
218 219 225 242 232 214 222 215 202 206 210 214 211 223 230 233 230 229 235 245 257 266 276 286 295 298 301 304 307 309 317 320 323 326 328 329 328 330 325 323 323 327 330 331
219 223 222 222 209 204 203 204 218 230 198 209 214 225 225 217 217 224 234 246 255 268 282 289 296 300 301 302 304 312 317 322 323 327 329 329 330 333 331 330 328 328 328 330
215 211 210 232 210 202 211 212 215 209 204 207 211 217 214 213 219 226 234 243 258 274 286 292 296 298 299 300 306 311 317 321 322 327 328 330 329 328 327 330 330 330 331 332
227 213 223 214 204 210 213 219 207 202 209 216 224 216 219 218 221 226 237 249 264 277 287 294 297 296 299 302 309 312 316 319 320 323 325 326 328 326 328 327 328 333 332 333